N27JY PTSA-PTPN

Flight info

Callsign N27JY
Flight time 0h 53m
Altitude 38000
Route UKS A222 AXTEN
Aircraft CL60/M-SBDE1E2E3FGHIJ1J4J5J7M3RWXYZ/LB1V1D1

Departure

Time 2026-04-24 21:13
Airport Kosrae International Airport (PTSA)

Arrival

Time 2026-04-24 22:07
Airport Pohnpei International Airport (PTPN)
Time Latitude Longitude Altitude Speed Heading
2026-04-24 21:13 5.35277 162.95218 20 ft 12 kts 56°
2026-04-24 21:13 5.35550 162.95622 20 ft 122 kts 56°
2026-04-24 21:13 5.36160 162.96489 497 ft 168 kts 57°
2026-04-24 21:13 5.36888 162.97456 1515 ft 192 kts 55°
2026-04-24 21:14 5.37789 162.98622 2320 ft 230 kts 51°
2026-04-24 21:14 5.39165 162.99518 3517 ft 253 kts 21°
2026-04-24 21:14 5.40936 162.99670 4829 ft 270 kts 355°
2026-04-24 21:14 5.42671 162.98912 6140 ft 285 kts 323°
2026-04-24 21:15 5.43827 162.97282 7321 ft 297 kts 293°
2026-04-24 21:15 5.44469 162.95300 8449 ft 305 kts 289°
2026-04-24 21:15 5.45091 162.93263 9599 ft 310 kts 289°
2026-04-24 21:15 5.45734 162.91185 10501 ft 325 kts 289°
2026-04-24 21:16 5.46462 162.88905 10822 ft 358 kts 289°
2026-04-24 21:16 5.47244 162.86470 11486 ft 375 kts 289°
2026-04-24 21:16 5.48057 162.83948 12356 ft 384 kts 289°
2026-04-24 21:16 5.48888 162.81374 13300 ft 388 kts 289°
2026-04-24 21:17 5.49717 162.78809 14180 ft 393 kts 289°
2026-04-24 21:17 5.50566 162.76186 15076 ft 397 kts 289°
2026-04-24 21:17 5.51416 162.73564 15928 ft 401 kts 289°
2026-04-24 21:17 5.52290 162.70869 16759 ft 405 kts 289°
2026-04-24 21:18 5.53156 162.68202 17543 ft 408 kts 289°
2026-04-24 21:18 5.54035 162.65498 18307 ft 412 kts 289°
2026-04-24 21:18 5.54928 162.62750 19059 ft 416 kts 289°
2026-04-24 21:18 5.55833 162.59969 19789 ft 419 kts 289°
2026-04-24 21:19 5.56736 162.57193 20471 ft 423 kts 289°
2026-04-24 21:19 5.57650 162.54384 21138 ft 427 kts 289°
2026-04-24 21:19 5.58576 162.51540 21777 ft 430 kts 289°
2026-04-24 21:19 5.59511 162.48669 22414 ft 434 kts 289°
2026-04-24 21:20 5.61386 162.42909 23612 ft 441 kts 289°
2026-04-24 21:20 5.62347 162.39961 24168 ft 445 kts 289°
2026-04-24 21:20 5.63313 162.36993 24711 ft 448 kts 288°
2026-04-24 21:21 5.64281 162.34019 25187 ft 453 kts 288°
2026-04-24 21:21 5.65254 162.31030 25731 ft 455 kts 288°
2026-04-24 21:21 5.66249 162.27975 26237 ft 458 kts 288°
2026-04-24 21:21 5.67245 162.24915 26705 ft 461 kts 288°
2026-04-24 21:22 5.68252 162.21820 27204 ft 463 kts 288°
2026-04-24 21:22 5.69263 162.18715 27621 ft 467 kts 287°
2026-04-24 21:22 5.70299 162.15530 28081 ft 469 kts 287°
2026-04-24 21:22 5.71318 162.12398 28536 ft 471 kts 287°
2026-04-24 21:23 5.72349 162.09227 28980 ft 473 kts 287°
2026-04-24 21:23 5.73372 162.06081 29424 ft 474 kts 287°
2026-04-24 21:23 5.74416 162.02870 29944 ft 473 kts 287°
2026-04-24 21:23 5.75432 161.99745 30518 ft 470 kts 287°
2026-04-24 21:24 5.76453 161.96608 31113 ft 467 kts 287°
2026-04-24 21:24 5.77469 161.93480 31709 ft 463 kts 287°
2026-04-24 21:24 5.78459 161.90434 32285 ft 459 kts 287°
2026-04-24 21:24 5.79453 161.87378 32856 ft 457 kts 287°
2026-04-24 21:25 5.80430 161.84369 33385 ft 455 kts 286°
2026-04-24 21:25 5.81407 161.81361 33857 ft 454 kts 286°
2026-04-24 21:25 5.82395 161.78320 34272 ft 454 kts 286°
2026-04-24 21:25 5.83374 161.75304 34694 ft 454 kts 286°
2026-04-24 21:26 5.84348 161.72304 35118 ft 453 kts 286°
2026-04-24 21:26 5.85325 161.69293 35529 ft 452 kts 286°
2026-04-24 21:26 5.86287 161.66328 35895 ft 452 kts 286°
2026-04-24 21:26 5.87262 161.63324 36233 ft 452 kts 286°
2026-04-24 21:27 5.88234 161.60326 36540 ft 453 kts 286°
2026-04-24 21:27 5.89217 161.57297 36845 ft 453 kts 287°
2026-04-24 21:27 5.90189 161.54297 37121 ft 453 kts 286°
2026-04-24 21:27 5.91160 161.51300 37386 ft 454 kts 286°
2026-04-24 21:28 5.92146 161.48262 37668 ft 454 kts 287°
2026-04-24 21:28 5.93122 161.45248 37888 ft 455 kts 287°
2026-04-24 21:28 5.94099 161.42233 37880 ft 461 kts 286°
2026-04-24 21:29 5.96102 161.36044 37884 ft 470 kts 287°
2026-04-24 21:29 5.98144 161.29738 37887 ft 477 kts 286°
2026-04-24 21:30 6.00210 161.23354 37887 ft 481 kts 286°
2026-04-24 21:30 6.02284 161.16946 37885 ft 481 kts 286°
2026-04-24 21:31 6.04348 161.10565 37889 ft 480 kts 286°
2026-04-24 21:31 6.06418 161.04161 37885 ft 481 kts 287°
2026-04-24 21:32 6.08481 160.97777 37884 ft 481 kts 286°
2026-04-24 21:32 6.10551 160.91368 37885 ft 481 kts 287°
2026-04-24 21:33 6.12623 160.84949 37887 ft 480 kts 286°
2026-04-24 21:33 6.14680 160.78575 37885 ft 479 kts 286°
2026-04-24 21:34 6.16734 160.72205 37887 ft 478 kts 286°
2026-04-24 21:34 6.18784 160.65845 37888 ft 478 kts 286°
2026-04-24 21:35 6.20826 160.59511 37889 ft 478 kts 286°
2026-04-24 21:35 6.22884 160.53119 37891 ft 477 kts 286°
2026-04-24 21:36 6.24928 160.46773 37883 ft 476 kts 286°
2026-04-24 21:36 6.27173 160.40482 37867 ft 477 kts 294°
2026-04-24 21:37 6.30015 160.34495 37881 ft 476 kts 293°
2026-04-24 21:37 6.32862 160.28487 37891 ft 476 kts 294°
2026-04-24 21:38 6.35737 160.22420 37900 ft 476 kts 294°
2026-04-24 21:38 6.38593 160.16389 37900 ft 476 kts 294°
2026-04-24 21:39 6.41467 160.10318 37905 ft 476 kts 294°
2026-04-24 21:39 6.44315 160.04301 37903 ft 475 kts 294°
2026-04-24 21:40 6.47158 159.98292 37906 ft 475 kts 294°
2026-04-24 21:40 6.50014 159.92253 37901 ft 476 kts 294°
2026-04-24 21:41 6.52877 159.86195 37896 ft 476 kts 294°
2026-04-24 21:41 6.55718 159.80183 37892 ft 476 kts 294°
2026-04-24 21:42 6.58558 159.74171 37887 ft 476 kts 294°
2026-04-24 21:42 6.61401 159.68149 37886 ft 475 kts 294°
2026-04-24 21:43 6.64243 159.62129 37537 ft 476 kts 294°
2026-04-24 21:43 6.65666 159.59114 36954 ft 469 kts 294°
2026-04-24 21:43 6.67044 159.56194 36387 ft 463 kts 294°
2026-04-24 21:43 6.68430 159.53258 35808 ft 459 kts 294°
2026-04-24 21:44 6.69782 159.50389 35225 ft 459 kts 294°
2026-04-24 21:44 6.71155 159.47479 34627 ft 459 kts 294°
2026-04-24 21:44 6.72526 159.44569 34018 ft 461 kts 294°
2026-04-24 21:44 6.73908 159.41637 33403 ft 463 kts 294°
2026-04-24 21:45 6.75289 159.38705 32790 ft 466 kts 294°
2026-04-24 21:45 6.76682 159.35750 32186 ft 469 kts 294°
2026-04-24 21:45 6.78078 159.32787 31547 ft 471 kts 294°
2026-04-24 21:45 6.79478 159.29813 30923 ft 472 kts 294°
2026-04-24 21:46 6.80901 159.26791 30284 ft 473 kts 294°
2026-04-24 21:46 6.82312 159.23795 29662 ft 474 kts 295°
2026-04-24 21:46 6.83710 159.20822 29031 ft 471 kts 295°
2026-04-24 21:46 6.85111 159.17847 28408 ft 465 kts 295°
2026-04-24 21:47 6.86477 159.14946 27807 ft 458 kts 295°
2026-04-24 21:47 6.87390 159.13003 27393 ft 454 kts 295°
2026-04-24 21:47 6.89191 159.09177 26592 ft 445 kts 295°
2026-04-24 21:47 6.90496 159.06401 26004 ft 439 kts 296°
2026-04-24 21:48 6.91794 159.03639 25426 ft 433 kts 296°
2026-04-24 21:48 6.93077 159.00911 24853 ft 427 kts 296°
2026-04-24 21:48 6.94341 158.98221 24290 ft 421 kts 296°
2026-04-24 21:48 6.95585 158.95573 23735 ft 416 kts 296°
2026-04-24 21:49 6.96825 158.92935 23186 ft 410 kts 296°
2026-04-24 21:49 6.98024 158.90381 22645 ft 404 kts 297°
2026-04-24 21:49 6.99215 158.87843 22119 ft 398 kts 297°
2026-04-24 21:49 7.00393 158.85335 21591 ft 392 kts 297°
2026-04-24 21:50 7.01545 158.82880 21077 ft 387 kts 297°
2026-04-24 21:50 7.02689 158.80444 20565 ft 381 kts 297°
2026-04-24 21:50 7.03815 158.78046 20065 ft 376 kts 297°
2026-04-24 21:50 7.04913 158.75703 19575 ft 371 kts 297°
2026-04-24 21:51 7.06006 158.73373 19084 ft 366 kts 297°
2026-04-24 21:51 7.07097 158.71046 18599 ft 362 kts 296°
2026-04-24 21:51 7.07865 158.68678 18129 ft 360 kts 281°
2026-04-24 21:51 7.08138 158.66171 17632 ft 358 kts 277°
2026-04-24 21:52 7.08374 158.63683 17157 ft 355 kts 277°
2026-04-24 21:52 7.08612 158.61218 16692 ft 352 kts 277°
2026-04-24 21:52 7.08846 158.58794 16228 ft 349 kts 277°
2026-04-24 21:52 7.09081 158.56363 15763 ft 346 kts 277°
2026-04-24 21:53 7.09313 158.53957 15306 ft 344 kts 277°
2026-04-24 21:53 7.09543 158.51581 14843 ft 341 kts 277°
2026-04-24 21:53 7.09770 158.49229 14386 ft 331 kts 277°
2026-04-24 21:53 7.09989 158.46959 13973 ft 323 kts 277°
2026-04-24 21:54 7.10205 158.44714 13543 ft 316 kts 277°
2026-04-24 21:54 7.10414 158.42545 13137 ft 310 kts 277°
2026-04-24 21:54 7.10621 158.40401 12728 ft 305 kts 277°
2026-04-24 21:54 7.10825 158.38289 12322 ft 300 kts 276°
2026-04-24 21:55 7.11025 158.36214 11934 ft 296 kts 276°
2026-04-24 21:55 7.11224 158.34149 11533 ft 292 kts 276°
2026-04-24 21:55 7.11417 158.32127 11163 ft 287 kts 277°
2026-04-24 21:55 7.11611 158.30129 10774 ft 284 kts 276°
2026-04-24 21:56 7.11799 158.28171 10402 ft 280 kts 276°
2026-04-24 21:56 7.11883 158.26209 10061 ft 278 kts 271°
2026-04-24 21:56 7.11892 158.24262 9657 ft 281 kts 270°
2026-04-24 21:56 7.11902 158.22288 9288 ft 281 kts 270°
2026-04-24 21:57 7.11911 158.20337 8859 ft 279 kts 271°
2026-04-24 21:57 7.11921 158.18385 8545 ft 271 kts 272°
2026-04-24 21:57 7.11931 158.16516 8179 ft 267 kts 270°
2026-04-24 21:57 7.11940 158.14664 7843 ft 262 kts 270°
2026-04-24 21:58 7.11949 158.12845 7509 ft 252 kts 270°
2026-04-24 21:58 7.11958 158.11151 7370 ft 232 kts 271°
2026-04-24 21:58 7.11965 158.09500 6978 ft 235 kts 269°
2026-04-24 21:58 7.11973 158.07873 6675 ft 226 kts 272°
2026-04-24 21:59 7.11921 158.06317 6397 ft 225 kts 263°
2026-04-24 21:59 7.11569 158.04797 6084 ft 223 kts 248°
2026-04-24 21:59 7.10884 158.03415 5795 ft 220 kts 233°
2026-04-24 21:59 7.09910 158.02228 5506 ft 215 kts 219°
2026-04-24 22:00 7.08741 158.01321 5229 ft 210 kts 205°
2026-04-24 22:00 7.07421 158.00702 4940 ft 205 kts 192°
2026-04-24 22:00 7.06032 158.00391 4664 ft 198 kts 180°
2026-04-24 22:00 7.04671 158.00374 4415 ft 193 kts 170°
2026-04-24 22:01 7.03373 158.00627 4160 ft 188 kts 157°
2026-04-24 22:01 7.02179 158.01117 3908 ft 183 kts 145°
2026-04-24 22:01 7.01122 158.01814 3685 ft 176 kts 136°
2026-04-24 22:01 7.00258 158.02646 3408 ft 166 kts 123°
2026-04-24 22:02 6.99585 158.03586 3224 ft 164 kts 116°
2026-04-24 22:02 6.99082 158.04605 2996 ft 159 kts 107°
2026-04-24 22:02 6.98772 158.05655 2791 ft 156 kts 99°
2026-04-24 22:02 6.98636 158.06712 2616 ft 152 kts 90°
2026-04-24 22:03 6.98614 158.07774 2398 ft 149 kts 92°
2026-04-24 22:03 6.98579 158.08820 2242 ft 144 kts 90°
2026-04-24 22:03 6.98564 158.09810 2012 ft 137 kts 89°
2026-04-24 22:03 6.98555 158.10747 1838 ft 131 kts 90°
2026-04-24 22:04 6.98550 158.11659 1664 ft 128 kts 89°
2026-04-24 22:04 6.98547 158.12532 1490 ft 124 kts 89°
2026-04-24 22:04 6.98544 158.13391 1327 ft 123 kts 89°
2026-04-24 22:04 6.98541 158.14253 1167 ft 123 kts 89°
2026-04-24 22:05 6.98537 158.15123 1005 ft 124 kts 89°
2026-04-24 22:05 6.98532 158.15994 842 ft 125 kts 89°
2026-04-24 22:05 6.98529 158.16866 676 ft 126 kts 90°
2026-04-24 22:05 6.98524 158.17752 508 ft 126 kts 90°
2026-04-24 22:06 6.98521 158.18617 347 ft 122 kts 90°
2026-04-24 22:06 6.98518 158.19481 164 ft 122 kts 89°
2026-04-24 22:06 6.98511 158.20331 27 ft 117 kts 90°
2026-04-24 22:06 6.98510 158.21057 33 ft 85 kts 92°
2026-04-24 22:07 6.98499 158.21303 33 ft 10 kts 73°
2026-04-24 22:07 6.98517 158.21251 33 ft 12 kts 269°
2026-04-24 22:07 6.98514 158.21149 33 ft 16 kts 268°
2026-04-24 22:07 6.98510 158.21019 33 ft 20 kts 268°
2026-04-24 22:08 6.98508 158.20865 33 ft 23 kts 271°
2026-04-24 22:08 6.98510 158.20680 30 ft 28 kts 270°
2026-04-24 22:08 6.98511 158.20500 29 ft 8 kts 270°
2026-04-24 22:08 6.98511 158.20422 28 ft 13 kts 266°
2026-04-24 22:09 6.98485 158.20361 26 ft 11 kts 203°
2026-04-24 22:09 6.98395 158.20360 26 ft 14 kts 177°
2026-04-24 22:09 6.98289 158.20360 26 ft 11 kts 190°
2026-04-24 22:09 6.98242 158.20390 27 ft 9 kts 159°
2026-04-24 22:10 6.98176 158.20383 27 ft 7 kts 249°
2026-04-24 22:10 6.98175 158.20366 27 ft 0 kts 267°